Time,TemperatureF,DewpointF,PressureIn,WindDirection,WindDirectionDegrees,WindSpeedMPH,WindSpeedGustMPH,Humidity,HourlyPrecipIn,Conditions,Clouds,dailyrainin,SoftwareType,DateUTC
2013-04-10 00:16:00,46.0,36.0,30.19,SE,140,0.0,3.0,67,0.00,,,0.00,weatherlink.com 1.10,2013-04-10 07:16:00,
2013-04-10 00:31:00,45.9,35.0,30.19,SE,140,0.0,0.0,66,0.00,,,0.00,weatherlink.com 1.10,2013-04-10 07:31:00,
2013-04-10 00:47:00,46.1,35.0,30.18,SE,140,0.0,0.0,65,0.00,,,0.00,weatherlink.com 1.10,2013-04-10 07:47:00,
2013-04-10 01:02:00,46.1,34.0,30.18,SE,140,0.0,0.0,64,0.00,,,0.00,weatherlink.com 1.10,2013-04-10 08:02:00,
2013-04-10 01:17:00,44.6,35.0,30.18,SE,142,1.0,4.0,68,0.00,,,0.00,weatherlink.com 1.10,2013-04-10 08:17:00,
2013-04-10 01:32:00,44.8,35.0,30.18,SE,142,0.0,2.0,69,0.00,,,0.00,weatherlink.com 1.10,2013-04-10 08:32:00,
2013-04-10 01:47:00,46.1,36.0,30.17,SE,142,0.0,3.0,68,0.00,,,0.00,weatherlink.com 1.10,2013-04-10 08:47:00,
2013-04-10 02:02:00,44.2,35.0,30.17,SE,142,0.0,0.0,70,0.00,,,0.00,weatherlink.com 1.10,2013-04-10 09:02:00,
2013-04-10 02:19:00,43.1,35.0,30.17,SE,142,0.0,0.0,72,0.00,,,0.00,weatherlink.com 1.10,2013-04-10 09:19:00,
2013-04-10 02:34:00,42.7,35.0,30.16,SE,142,0.0,0.0,73,0.00,,,0.00,weatherlink.com 1.10,2013-04-10 09:34:00,
2013-04-10 02:49:00,42.8,35.0,30.16,SE,142,0.0,0.0,74,0.00,,,0.00,weatherlink.com 1.10,2013-04-10 09:49:00,
2013-04-10 03:04:00,42.5,35.0,30.16,SE,142,0.0,0.0,74,0.00,,,0.00,weatherlink.com 1.10,2013-04-10 10:04:00,
2013-04-10 03:19:00,42.5,35.0,30.15,SE,142,0.0,0.0,76,0.00,,,0.00,weatherlink.com 1.10,2013-04-10 10:19:00,
2013-04-10 03:34:00,42.7,36.0,30.15,SE,142,0.0,0.0,76,0.00,,,0.00,weatherlink.com 1.10,2013-04-10 10:34:00,
2013-04-10 03:49:00,42.4,36.0,30.14,SE,142,0.0,0.0,77,0.00,,,0.00,weatherlink.com 1.10,2013-04-10 10:49:00,
2013-04-10 04:04:00,43.0,36.0,30.14,SE,142,0.0,0.0,77,0.00,,,0.00,weatherlink.com 1.10,2013-04-10 11:04:00,
2013-04-10 04:19:00,43.4,36.0,30.14,SE,142,0.0,2.0,76,0.00,,,0.00,weatherlink.com 1.10,2013-04-10 11:19:00,
2013-04-10 04:34:00,43.7,36.0,30.13,SE,142,0.0,0.0,74,0.00,,,0.00,weatherlink.com 1.10,2013-04-10 11:34:00,
2013-04-10 04:49:00,43.4,36.0,30.12,SE,142,0.0,0.0,75,0.00,,,0.00,weatherlink.com 1.10,2013-04-10 11:49:00,
2013-04-10 05:04:00,43.6,37.0,30.12,SE,142,0.0,0.0,76,0.00,,,0.00,weatherlink.com 1.10,2013-04-10 12:04:00,
2013-04-10 05:19:00,43.5,37.0,30.12,SE,142,0.0,0.0,77,0.00,,,0.00,weatherlink.com 1.10,2013-04-10 12:19:00,
2013-04-10 05:34:00,43.6,37.0,30.12,SE,142,0.0,0.0,76,0.00,,,0.00,weatherlink.com 1.10,2013-04-10 12:34:00,
2013-04-10 05:49:00,42.4,36.0,30.12,SE,142,0.0,0.0,77,0.00,,,0.00,weatherlink.com 1.10,2013-04-10 12:49:00,
2013-04-10 06:05:00,41.7,36.0,30.11,SE,142,0.0,0.0,80,0.00,,,0.00,weatherlink.com 1.10,2013-04-10 13:05:00,
2013-04-10 06:20:00,42.2,37.0,30.11,SE,142,0.0,0.0,81,0.00,,,0.00,weatherlink.com 1.10,2013-04-10 13:20:00,
2013-04-10 06:36:00,43.1,38.0,30.10,SE,142,0.0,0.0,81,0.00,,,0.00,weatherlink.com 1.10,2013-04-10 13:36:00,
2013-04-10 06:50:00,43.3,37.0,30.10,SE,142,0.0,0.0,79,0.00,,,0.00,weatherlink.com 1.10,2013-04-10 13:50:00,
2013-04-10 07:05:00,49.2,43.0,30.09,SSW,210,11.0,19.0,78,0.00,,,0.00,weatherlink.com 1.10,2013-04-10 14:05:00,
2013-04-10 07:20:00,52.3,43.0,30.09,SSW,202,9.0,12.0,70,0.00,,,0.00,weatherlink.com 1.10,2013-04-10 14:20:00,
2013-04-10 07:35:00,53.4,43.0,30.09,SSW,193,6.0,16.0,68,0.00,,,0.00,weatherlink.com 1.10,2013-04-10 14:35:00,
2013-04-10 07:51:00,54.1,43.0,30.08,SSW,192,7.0,18.0,66,0.00,,,0.00,weatherlink.com 1.10,2013-04-10 14:51:00,
2013-04-10 08:06:00,53.8,43.0,30.08,South,191,7.0,13.0,67,0.00,,,0.00,weatherlink.com 1.10,2013-04-10 15:06:00,
2013-04-10 08:21:00,53.9,43.0,30.07,SSW,197,9.0,20.0,66,0.00,,,0.00,weatherlink.com 1.10,2013-04-10 15:21:00,
2013-04-10 08:36:00,53.9,43.0,30.06,South,170,7.0,13.0,67,0.00,,,0.00,weatherlink.com 1.10,2013-04-10 15:36:00,
2013-04-10 08:51:00,54.3,43.0,30.06,South,191,9.0,15.0,66,0.00,,,0.00,weatherlink.com 1.10,2013-04-10 15:51:00,
2013-04-10 09:06:00,53.9,43.0,30.06,SSW,199,6.0,14.0,66,0.00,,,0.00,weatherlink.com 1.10,2013-04-10 16:06:00,
2013-04-10 09:21:00,54.0,44.0,30.05,SSW,213,7.0,16.0,68,0.00,,,0.00,weatherlink.com 1.10,2013-04-10 16:21:00,
2013-04-10 09:37:00,55.0,44.0,30.05,WSW,242,10.0,18.0,67,0.00,,,0.00,weatherlink.com 1.10,2013-04-10 16:37:00,
2013-04-10 09:52:00,55.4,44.0,30.04,SSW,198,13.0,24.0,66,0.00,,,0.00,weatherlink.com 1.10,2013-04-10 16:52:00,
2013-04-10 10:07:00,55.4,44.0,30.04,SW,218,12.0,24.0,65,0.00,,,0.00,weatherlink.com 1.10,2013-04-10 17:07:00,
2013-04-10 10:22:00,56.6,45.0,30.03,SSW,207,7.0,18.0,66,0.00,,,0.00,weatherlink.com 1.10,2013-04-10 17:22:00,
2013-04-10 10:37:00,58.0,45.0,30.01,SSW,203,15.0,23.0,62,0.00,,,0.00,weatherlink.com 1.10,2013-04-10 17:37:00,
2013-04-10 10:59:00,59.0,45.0,30.00,SW,215,12.0,26.0,60,0.00,,,0.00,weatherlink.com 1.10,2013-04-10 17:59:00,
2013-04-10 11:09:00,59.4,45.0,29.99,WSW,244,25.0,29.0,59,0.00,,,0.00,weatherlink.com 1.10,2013-04-10 18:09:00,
2013-04-10 11:24:00,60.0,45.0,29.99,SW,236,25.0,34.0,58,0.00,,,0.00,weatherlink.com 1.10,2013-04-10 18:24:00,
2013-04-10 11:39:00,60.7,45.0,29.99,SW,231,22.0,32.0,56,0.00,,,0.00,weatherlink.com 1.10,2013-04-10 18:39:00,
2013-04-10 11:54:00,58.1,46.0,30.01,WSW,245,20.0,28.0,65,0.00,,,0.00,weatherlink.com 1.10,2013-04-10 18:54:00,
2013-04-10 12:09:00,58.0,44.0,30.01,West,265,14.0,26.0,61,0.00,,,0.00,weatherlink.com 1.10,2013-04-10 19:09:00,
2013-04-10 12:24:00,59.0,46.0,30.01,SW,232,14.0,23.0,62,0.00,,,0.00,weatherlink.com 1.10,2013-04-10 19:24:00,
2013-04-10 12:39:00,59.0,46.0,30.00,SW,229,14.0,24.0,62,0.00,,,0.00,weatherlink.com 1.10,2013-04-10 19:39:00,
2013-04-10 12:54:00,59.8,44.0,30.00,SW,222,19.0,26.0,56,0.00,,,0.00,weatherlink.com 1.10,2013-04-10 19:54:00,
2013-04-10 13:09:00,59.0,44.0,30.00,West,260,16.0,21.0,57,0.00,,,0.00,weatherlink.com 1.10,2013-04-10 20:09:00,
2013-04-10 13:24:00,59.6,42.0,30.00,West,271,10.0,24.0,53,0.00,,,0.00,weatherlink.com 1.10,2013-04-10 20:24:00,
2013-04-10 13:39:00,58.0,41.0,30.00,NW,310,15.0,20.0,54,0.00,,,0.00,weatherlink.com 1.10,2013-04-10 20:39:00,
2013-04-10 13:55:00,58.5,41.0,30.01,NW,322,7.0,21.0,52,0.00,,,0.00,weatherlink.com 1.10,2013-04-10 20:55:00,
2013-04-10 14:10:00,61.2,37.0,30.01,WNW,302,13.0,21.0,41,0.00,,,0.00,weatherlink.com 1.10,2013-04-10 21:10:00,
2013-04-10 14:25:00,59.8,36.0,30.03,NW,321,15.0,24.0,41,0.00,,,0.00,weatherlink.com 1.10,2013-04-10 21:25:00,
2013-04-10 14:40:00,60.7,35.0,30.04,NW,319,16.0,26.0,39,0.00,,,0.00,weatherlink.com 1.10,2013-04-10 21:40:00,
2013-04-10 14:55:00,60.2,35.0,30.02,NW,310,19.0,26.0,39,0.00,,,0.00,weatherlink.com 1.10,2013-04-10 21:55:00,
2013-04-10 15:10:00,60.9,36.0,30.02,WNW,284,16.0,28.0,40,0.00,,,0.00,weatherlink.com 1.10,2013-04-10 22:10:00,
2013-04-10 15:25:00,60.2,36.0,30.02,NW,317,18.0,24.0,40,0.00,,,0.00,weatherlink.com 1.10,2013-04-10 22:25:00,
2013-04-10 15:40:00,59.0,38.0,30.02,WNW,287,15.0,25.0,45,0.00,,,0.00,weatherlink.com 1.10,2013-04-10 22:40:00,
2013-04-10 16:11:00,56.9,39.0,30.04,NW,325,20.0,32.0,51,0.00,,,0.00,weatherlink.com 1.10,2013-04-10 23:11:00,
2013-04-10 16:26:00,58.2,38.0,30.03,NW,311,22.0,31.0,48,0.00,,,0.00,weatherlink.com 1.10,2013-04-10 23:26:00,
2013-04-10 16:41:00,57.5,39.0,30.04,NW,325,19.0,33.0,50,0.00,,,0.00,weatherlink.com 1.10,2013-04-10 23:41:00,
2013-04-10 17:27:00,56.0,37.0,30.05,NW,314,32.0,32.0,49,0.00,,,0.00,weatherlink.com 1.10,2013-04-11 00:27:00,
2013-04-10 17:41:00,55.7,36.0,30.05,NW,309,17.0,27.0,48,0.00,,,0.00,weatherlink.com 1.10,2013-04-11 00:41:00,
2013-04-10 17:57:00,54.7,37.0,30.07,NW,309,17.0,25.0,52,0.00,,,0.00,weatherlink.com 1.10,2013-04-11 00:57:00,
2013-04-10 18:12:00,53.9,33.0,30.07,NW,323,17.0,27.0,46,0.00,,,0.00,weatherlink.com 1.10,2013-04-11 01:12:00,
2013-04-10 18:27:00,54.0,34.0,30.08,WNW,283,13.0,24.0,47,0.00,,,0.00,weatherlink.com 1.10,2013-04-11 01:27:00,
2013-04-10 18:42:00,53.9,33.0,30.09,NW,316,12.0,24.0,45,0.00,,,0.00,weatherlink.com 1.10,2013-04-11 01:42:00,
2013-04-10 18:57:00,53.0,33.0,30.09,NW,316,11.0,21.0,47,0.00,,,0.00,weatherlink.com 1.10,2013-04-11 01:57:00,
2013-04-10 19:12:00,52.0,32.0,30.10,NW,309,9.0,18.0,47,0.00,,,0.00,weatherlink.com 1.10,2013-04-11 02:12:00,
2013-04-10 19:27:00,51.0,33.0,30.10,WNW,302,5.0,12.0,50,0.00,,,0.00,weatherlink.com 1.10,2013-04-11 02:27:00,
2013-04-10 19:44:00,49.5,32.0,30.11,NW,326,7.0,15.0,51,0.00,,,0.00,weatherlink.com 1.10,2013-04-11 02:44:00,
2013-04-10 19:59:00,49.1,31.0,30.11,West,276,9.0,14.0,50,0.00,,,0.00,weatherlink.com 1.10,2013-04-11 02:59:00,
2013-04-10 20:14:00,48.7,32.0,30.11,WNW,282,10.0,15.0,53,0.00,,,0.00,weatherlink.com 1.10,2013-04-11 03:14:00,
2013-04-10 20:44:00,48.0,29.0,30.11,WNW,284,14.0,21.0,48,0.00,,,0.00,weatherlink.com 1.10,2013-04-11 03:44:00,
2013-04-10 20:59:00,47.8,29.0,30.12,WNW,287,4.0,18.0,48,0.00,,,0.00,weatherlink.com 1.10,2013-04-11 03:59:00,
2013-04-10 21:14:00,47.3,28.0,30.12,West,277,4.0,15.0,48,0.00,,,0.00,weatherlink.com 1.10,2013-04-11 04:14:00,
2013-04-10 21:29:00,46.6,29.0,30.12,WNW,284,8.0,14.0,50,0.00,,,0.00,weatherlink.com 1.10,2013-04-11 04:29:00,
2013-04-10 21:44:00,46.5,30.0,30.12,WNW,296,0.0,14.0,52,0.00,,,0.00,weatherlink.com 1.10,2013-04-11 04:44:00,
2013-04-10 21:59:00,46.0,30.0,30.13,WNW,293,2.0,11.0,53,0.00,,,0.00,weatherlink.com 1.10,2013-04-11 04:59:00,
2013-04-10 22:14:00,45.1,29.0,30.13,WNW,292,0.0,4.0,54,0.00,,,0.00,weatherlink.com 1.10,2013-04-11 05:14:00,
2013-04-10 22:29:00,44.1,29.0,30.13,WNW,292,0.0,2.0,56,0.00,,,0.00,weatherlink.com 1.10,2013-04-11 05:29:00,
2013-04-10 22:44:00,43.7,29.0,30.12,WNW,293,0.0,0.0,57,0.00,,,0.00,weatherlink.com 1.10,2013-04-11 05:44:00,
2013-04-10 23:00:00,43.2,29.0,30.12,NW,317,0.0,10.0,58,0.00,,,0.00,weatherlink.com 1.10,2013-04-11 06:00:00,
2013-04-10 23:15:00,40.8,29.0,30.13,NW,317,0.0,7.0,62,0.00,,,0.00,weatherlink.com 1.10,2013-04-11 06:15:00,
2013-04-10 23:30:00,39.8,30.0,30.13,NNW,336,0.0,2.0,67,0.00,,,0.00,weatherlink.com 1.10,2013-04-11 06:30:00,
2013-04-10 23:45:00,38.5,29.0,30.14,NE,49,0.0,3.0,70,0.00,,,0.00,weatherlink.com 1.10,2013-04-11 06:45:00,